Weather History for Osceola, WI

Change the Weather History Date:

Tuesday, September 25, 2012

  Actual Average (KMSP) Record (KMSP)
Temperature  
Mean Temperature 48 °F 58 °F  
Max Temperature 62 °F 68 °F 91 °F (1920)
Min Temperature 35 °F 48 °F 31 °F (1926)
Degree Days  
Heating Degree Days 16 8  
Month to date heating degree days 109  
Since 1 July heating degree days 128  
Cooling Degree Days 0 1  
Month to date cooling degree days 62  
Year to date cooling degree days 743  
Moisture  
Dew Point 36 °F    
Average Humidity 61    
Maximum Humidity 93    
Minimum Humidity 32    
Precipitation  
Precipitation 0.00 in 0.11 in 1.34 in (1934)
Month to date precipitation 2.60  
Year to date precipitation 24.77  
Snow  
Snow 0.00 in 0.00 in 0.00 in ()
Month to date snowfall 0.0  
Since 1 July snowfall 0.0  
Since 1 September snowfall 0.0  
Snow Depth -    
Sea Level Pressure  
Sea Level Pressure 29.90 in    
Wind  
Wind Speed 4 mph (North)    
Max Wind Speed 9 mph    
Max Gust Speed -    
Visibility 10 miles    
Events      
T = Trace of Precipitation, MM = Missing Value Source: NWS Daily Summary

Daily Weather History Graph

Daily Weather History Graph

Search for Another Location

Airport:

Trip Planner

Search our weather history database for the weather conditions in past years. The results will help you decide how hot, cold, wet, or windy it might be!

Date:

Astronomy

Sep. 25, 2012 Rise Set
Actual Time 7:02 AM CDT 7:01 PM CDT
Civil Twilight 6:32 AM CDT 7:30 PM CDT
Nautical Twilight 5:58 AM CDT 8:05 PM CDT
Astronomical Twilight 5:22 AM CDT 8:40 PM CDT
Moon 4:36 PM CDT (9/25) 2:12 AM CDT (9/25)
Length of Visible Light 12h 58m
Length of Day
11h 59m
Waxing Gibbous, 80% of the Moon is Illuminated
Sep 25
Waxing Gibbous
Sep 29
Full
Oct 8
Last Quarter
Oct 15
New
Oct 21
First Quarter

Hourly Weather History & Observations

Time (CDT) Temp. Windchill Dew Point Humidity Pressure Visibility Wind Dir Wind Speed Gust Speed Precip Events Conditions
12:15 AM 51.8 °F - 41.0 °F 67% 29.80 in 10.0 mi North 6.9 mph - N/A   Clear
12:35 AM 51.8 °F - 39.2 °F 62% 29.80 in 10.0 mi North 8.1 mph - N/A   Clear
12:55 AM 51.8 °F - 39.2 °F 62% 29.81 in 10.0 mi North 6.9 mph - N/A   Clear
1:15 AM 50.0 °F - 39.2 °F 66% 29.81 in 10.0 mi North 4.6 mph - N/A   Clear
1:35 AM 50.0 °F - 39.2 °F 66% 29.82 in 10.0 mi Calm Calm - N/A   Clear
1:55 AM 50.0 °F - 39.2 °F 66% 29.82 in 10.0 mi North 5.8 mph - N/A   Clear
2:15 AM 50.0 °F - 39.2 °F 66% 29.83 in 10.0 mi North 3.5 mph - N/A   Clear
2:35 AM 50.0 °F - 39.2 °F 66% 29.83 in 10.0 mi NNE 5.8 mph - N/A   Clear
2:55 AM 50.0 °F - 39.2 °F 66% 29.84 in 10.0 mi NNE 5.8 mph - N/A   Clear
3:15 AM 48.2 °F - 39.2 °F 71% 29.84 in 10.0 mi NNE 4.6 mph - N/A   Clear
3:35 AM 48.2 °F - 39.2 °F 71% 29.84 in 10.0 mi NNE 3.5 mph - N/A   Clear
3:55 AM 48.2 °F - 39.2 °F 71% 29.84 in 10.0 mi NNE 5.8 mph - N/A   Clear
4:15 AM 44.6 °F 42.2 °F 37.4 °F 76% 29.84 in 10.0 mi North 4.6 mph - N/A   Clear
4:35 AM 44.6 °F - 37.4 °F 76% 29.85 in 10.0 mi Calm Calm - N/A   Clear
4:55 AM 42.8 °F 41.1 °F 37.4 °F 81% 29.85 in 10.0 mi North 3.5 mph - N/A   Clear
5:15 AM 42.8 °F 41.1 °F 37.4 °F 81% 29.85 in 10.0 mi North 3.5 mph - N/A   Clear
5:35 AM 42.8 °F 41.1 °F 37.4 °F 81% 29.85 in 10.0 mi North 3.5 mph - N/A   Clear
5:55 AM 41.0 °F - 37.4 °F 87% 29.86 in 10.0 mi Calm Calm - N/A   Clear
6:15 AM 41.0 °F - 37.4 °F 87% 29.86 in 10.0 mi Calm Calm - N/A   Clear
6:35 AM 41.0 °F - 37.4 °F 87% 29.87 in 10.0 mi Calm Calm - N/A   Clear
6:55 AM 37.4 °F - 33.8 °F 87% 29.87 in 10.0 mi Calm Calm - N/A   Clear
7:15 AM 37.4 °F - 35.6 °F 93% 29.87 in 10.0 mi Calm Calm - N/A   Clear
7:35 AM 35.6 °F - 33.8 °F 93% 29.88 in 10.0 mi Calm Calm - N/A   Clear
7:55 AM 37.4 °F - 35.6 °F 93% 29.89 in 10.0 mi Calm Calm - N/A   Clear
8:15 AM 42.8 °F - 39.2 °F 87% 29.90 in 10.0 mi Calm Calm - N/A   Clear
8:35 AM 44.6 °F - 41.0 °F 87% 29.91 in 10.0 mi Calm Calm - N/A   Clear
8:55 AM 46.4 °F - 41.0 °F 81% 29.93 in 10.0 mi Calm Calm - N/A   Clear
9:15 AM 48.2 °F - 41.0 °F 76% 29.94 in 10.0 mi Calm Calm - N/A   Clear
9:35 AM 50.0 °F - 41.0 °F 71% 29.94 in 10.0 mi Calm Calm - N/A   Clear
9:55 AM 53.6 °F - 41.0 °F 62% 29.94 in 10.0 mi Calm Calm - N/A   Clear
10:15 AM 55.4 °F - 37.4 °F 51% 29.94 in 10.0 mi NE 5.8 mph - N/A   Clear
10:35 AM 59.0 °F - 37.4 °F 45% 29.95 in 10.0 mi NE 5.8 mph - N/A   Clear
10:55 AM 59.0 °F - 35.6 °F 42% 29.95 in 10.0 mi ENE 5.8 mph - N/A   Clear
11:15 AM 60.8 °F - 35.6 °F 39% 29.95 in 10.0 mi ENE 6.9 mph - N/A   Clear
11:35 AM 60.8 °F - 35.6 °F 39% 29.94 in 10.0 mi NNW 6.9 mph - N/A   Clear
11:55 AM 59.0 °F - 35.6 °F 42% 29.95 in 10.0 mi NNE 3.5 mph - N/A   Clear
12:15 PM 60.8 °F - 37.4 °F 42% 29.94 in 10.0 mi NE 6.9 mph - N/A   Clear
12:35 PM 60.8 °F - 35.6 °F 39% 29.94 in 10.0 mi NNE 9.2 mph - N/A   Clear
12:55 PM 60.8 °F - 33.8 °F 36% 29.94 in 10.0 mi NW 5.8 mph - N/A   Clear
1:15 PM 59.0 °F - 33.8 °F 39% 29.94 in 10.0 mi WNW 6.9 mph - N/A   Clear
2:15 PM 60.8 °F - 35.6 °F 39% 29.92 in 10.0 mi North 9.2 mph - N/A   Clear
2:35 PM 60.8 °F - 33.8 °F 36% 29.92 in 10.0 mi NW 5.8 mph - N/A   Clear
2:55 PM 60.8 °F - 33.8 °F 36% 29.92 in 10.0 mi Calm Calm - N/A   Clear
3:15 PM 62.6 °F - 33.8 °F 34% 29.91 in 10.0 mi NNW 6.9 mph - N/A   Clear
3:35 PM 62.6 °F - 33.8 °F 34% 29.91 in 10.0 mi North 8.1 mph - N/A   Clear
3:55 PM 62.6 °F - 35.6 °F 37% 29.91 in 10.0 mi NNE 5.8 mph - N/A   Clear
4:15 PM 62.6 °F - 33.8 °F 34% 29.91 in 10.0 mi North 4.6 mph - N/A   Clear
4:35 PM 62.6 °F - 33.8 °F 34% 29.91 in 10.0 mi NNW 5.8 mph - N/A   Clear
4:55 PM 62.6 °F - 32.0 °F 32% 29.91 in 10.0 mi NNW 9.2 mph - N/A   Clear
5:15 PM 62.6 °F - 32.0 °F 32% 29.91 in 10.0 mi WNW 5.8 mph - N/A   Clear
5:35 PM 62.6 °F - 32.0 °F 32% 29.91 in 10.0 mi NNW 6.9 mph - N/A   Clear
5:55 PM 62.6 °F - 32.0 °F 32% 29.92 in 10.0 mi NNW 6.9 mph - N/A   Clear
6:15 PM 60.8 °F - 32.0 °F 34% 29.93 in 10.0 mi NNW 4.6 mph - N/A   Clear
6:35 PM 59.0 °F - 32.0 °F 36% 29.93 in 10.0 mi Calm Calm - N/A   Clear
6:55 PM 59.0 °F - 32.0 °F 36% 29.94 in 10.0 mi Calm Calm - N/A   Clear
7:15 PM 57.2 °F - 33.8 °F 41% 29.94 in 10.0 mi Calm Calm - N/A   Clear
7:55 PM 46.4 °F - 35.6 °F 66% 29.95 in 10.0 mi Calm Calm - N/A   Clear
8:15 PM 46.4 °F - 35.6 °F 66% 29.96 in 10.0 mi Calm Calm - N/A   Clear
8:35 PM 44.6 °F - 35.6 °F 71% 29.96 in 10.0 mi Calm Calm - N/A   Clear
9:15 PM 41.0 °F - 33.8 °F 76% 29.97 in 10.0 mi Calm Calm - N/A   Clear
9:35 PM 41.0 °F - 33.8 °F 76% 29.97 in 10.0 mi Calm Calm - N/A   Clear
10:15 PM 41.0 °F - 33.8 °F 76% 29.98 in 10.0 mi Calm Calm - N/A   Clear
10:55 PM 39.2 °F - 33.8 °F 81% 29.99 in 10.0 mi Calm Calm - N/A   Clear
11:35 PM 37.4 °F - 33.8 °F 87% 29.99 in 10.0 mi Calm Calm - N/A   Clear
11:55 PM 37.4 °F - 35.6 °F 93% 29.99 in 10.0 mi Calm Calm - N/A   Clear